Regional Weather Roundup
Issued by NWS Little Rock, AR

Home | Current Version | Previous Version | Text Only | Print | Product List | Glossary Off
Versions: 1 2 3 4 5 6 7 8 9 10 11 12 13 14 15 16 17 18 19 20 21 22 23 24 25 26 27 28 29 30 31 32 33 34 35 36 37 38 39 40 41 42 43 44 45 46 47 48

000
ASUS44 KLZK 022205
RWRLZK

WEATHER ROUNDUP FOR ARKANSAS
NATIONAL WEATHER SERVICE LITTLE ROCK AR
500 PM CDT TUE JUN 02 2015

NOTE: "FAIR" INDICATES FEW OR NO CLOUDS BELOW 12,000 FEET WITH NO
SIGNIFICANT WEATHER AND/OR OBSTRUCTIONS TO VISIBILITY.

ARZ001-003-010-029-022300-
NORTHWEST ARKANSAS

CITY           SKY/WX    TMP DP  RH WIND       PRES   REMARKS
FAYETTEVILLE   CLOUDY    77  67  71 VRB6      29.99F
FORT SMITH     PTSUNNY   83  65  54 SE6       29.96F HX  85
HARRISON       PTSUNNY   73  64  73 E5        30.02F
BENTONVILLE    MOSUNNY   81  63  54 S5        29.99F
ROGERS         CLOUDY    77  66  68 SE6       30.00F
SILOAM SPGS    MOSUNNY   81  64  57 S9        30.00S
HIGHFILL       MOSUNNY   80  66  62 S8        29.98F
SPRINGDALE     PTSUNNY   77  66  69 S7G14     30.01F
$$

ARZ004-005-016-022300-
NORTH CENTRAL ARKANSAS

CITY           SKY/WX    TMP DP  RH WIND       PRES   REMARKS
BATESVILLE     PTSUNNY   73  61  64 E6        30.01F
FLIPPIN        MOSUNNY   75  59  57 E5        30.00F
MTN HOME       MOSUNNY   73  60  63 E3        30.01F
$$

ARZ040-041-022300-
WEST CENTRAL ARKANSAS

CITY           SKY/WX    TMP DP  RH WIND       PRES   REMARKS
MENA           CLOUDY    81  68  65 CALM      30.00F
MOUNT IDA      PTSUNNY   79  66  64 CALM      29.98F
$$

ARZ009-017-025-026-028-022300-
NORTHEAST ARKANSAS

CITY           SKY/WX    TMP DP  RH WIND       PRES   REMARKS
CORNING          N/A     66  57  72 NE6       30.05F
JONESBORO      PTSUNNY   70  60  70 E13       30.02F
NEWPORT        MOSUNNY   75  60  59 NE6       30.03F
WALNUT RIDGE   SUNNY     70  57  64 NE12      30.03F
BLYTHEVILLE    CLOUDY    71  61  70 NW7       30.03F
$$

ARZ022-023-033-042-044-022300-
CENTRAL ARKANSAS

CITY           SKY/WX    TMP DP  RH WIND       PRES   REMARKS
LITTLE ROCK    MOSUNNY   78  61  55 VRB5      30.00F
N LITTLE ROCK  MOSUNNY   78  66  66 E6        30.00F
JACKSONVILLE   MOSUNNY   77  64  64 S5        30.00F
SEARCY         PTSUNNY   75  63  66 SE9       30.02F
HOT SPRINGS    CLOUDY    78  62  57 CALM      30.00F
RUSSELLVILLE   CLOUDY    78  64  61 E3        30.00F
CLINTON        FAIR      77  63  61 CALM      30.01S
$$

ARZ036-022300-
EAST ARKANSAS

CITY           SKY/WX    TMP DP  RH WIND       PRES   REMARKS
WEST MEMPHIS   CLOUDY    72  59  63 N8        30.01F
$$

ARZ050-053-066-070-073-022300-
SOUTHWEST ARKANSAS

CITY           SKY/WX    TMP DP  RH WIND       PRES   REMARKS
ARKADELPHIA    FAIR      82  65  56 VRB5      29.99F
CAMDEN         MOSUNNY   84  59  42 CALM      29.99F
TEXARKANA      MOSUNNY   83  65  54 E6        29.97F HX  85
EL DORADO      SUNNY     79  63  57 N6        29.99F
DE QUEEN       PTSUNNY   81  67  62 S3        29.96F
$$

ARZ056-057-069-022300-
SOUTHEAST ARKANSAS

CITY           SKY/WX    TMP DP  RH WIND       PRES   REMARKS
PINE BLUFF     MOSUNNY   78  64  61 VRB3      30.00F
STUTTGART      MOSUNNY   75  63  64 MISG      30.02F
MONTICELLO     PTSUNNY   81  63  54 NE8       29.99F

$$




USA.gov is the U.S. government's official web portal to all federal, state and local government web resources and services.